Home   Weather   Faversham   Past weeks
Flag for United Kingdom

Past Weather in Faversham, England, United Kingdom — Yesterday and Last 2 Weeks

Now
70 °F

Mild.


Feels Like: 76 °F
Forecast: 70 / 55 °F
Wind: 8 mph from West

Location: Shoeburyness

Current Time: Jul 18, 2019 at 9:00:19 pm

Latest Report: Jul 18, 2019 at 8:00 pm


Visibility: 28 mi

Pressure: 29.85 "Hg

Humidity: 56%

Dew Point: 54 °F

Location of FavershamLocation

Past Weather in Faversham — Graph

°F

Faversham Temperature Yesterday

Maximum temperature yesterday: 75 °F (at 2:00 pm)
Minimum temperature yesterday: 54 °F (at 6:00 am)
Average temperature yesterday: 67 °F

High & Low Weather Summary for the Past Weeks

 TemperatureHumidityPressure
High78 °F (Jul 5, 5:00 pm)99% (Jul 8, 7:00 am)30.35 "Hg (Jul 8, 7:00 am)
Low46 °F (Jul 16, 5:00 am)38% (Jul 5, 5:00 pm)29.81 "Hg (Jul 18, 12:00 pm)
Average64 °F71%30.07 "Hg
* Reported Jul 3 7:00 pm — Jul 18 7:00 pm, Faversham. Weather by CustomWeather, © 2019

Note: Actual official high and low records may vary slightly from our data, if they occured in-between our weather recording intervals... More about our weather records

Advertising

Faversham Weather History for the Previous 24 Hours

Scroll right to see more
 ConditionsComfort  
Time TempWeatherWind HumidityBarometerVisibility
7:00 pm
Thu, Jul 18
71 °FMild.12 mph53%29.83 "Hg19 mi
6:00 pm71 °FMild.14 mph53%29.83 "Hg28 mi
5:00 pm71 °FMild.13 mph57%29.83 "Hg31 mi
4:00 pm71 °FMild.14 mph59%29.83 "Hg28 mi
3:00 pm68 °FMild.12 mph73%29.83 "Hg19 mi
2:00 pm65 °FMild.8 mph89%29.82 "Hg22 mi
1:00 pm63 °FMild.8 mph92%29.81 "Hg19 mi
12:00 pm67 °FMild.15 mph81%29.81 "Hg19 mi
11:00 am66 °FMild.14 mph84%29.81 "Hg28 mi
10:00 am64 °FDrizzle. Cloudy.12 mph90%29.81 "Hg4 mi
9:00 am65 °FMild.15 mph77%29.81 "Hg12 mi
8:00 am64 °FMild.12 mph81%29.82 "Hg16 mi
7:00 am63 °FMild.9 mph87%29.82 "Hg9 mi
6:00 am61 °FCool.5 mph88%29.82 "Hg9 mi
5:00 am62 °FCool.8 mph85%29.83 "Hg12 mi
4:00 am62 °FCool.6 mph83%29.83 "Hg13 mi
3:00 am62 °FCool.7 mph81%29.84 "Hg14 mi
2:00 am62 °FCool.8 mph76%29.85 "Hg25 mi
1:00 am64 °FMild.8 mph70%29.87 "Hg28 mi
12:00 am65 °FMild.9 mph66%29.87 "Hg31 mi
11:00 pm
Wed, Jul 17
67 °FLight rain. Overcast.9 mph66%29.87 "Hg25 mi
10:00 pm67 °FMild.8 mph67%29.87 "Hg19 mi
9:00 pm68 °FMild.9 mph70%29.87 "Hg28 mi
Weather by CustomWeather, © 2019

See weather overview